Location: Arran
(51.9410°N, 101.7372°W)
Time: 07:03:48
(UTC+00:00)

SWISSCUBE - Visible Passes

Search period start: 13 May 2025 00:00
Search period end: 23 May 2025 00:00
Orbit: 683 x 694 km, 98.4° (Epoch: 12 May)

Date Brightness Start Highest point End Pass type
(mag) Time Alt. Az. Time Alt. Az. Time Alt. Az.
13 May ? 04:40:58 10° NE 04:44:32 21° E 04:45:57 18° ESE visible
13 May ? 06:17:44 10° N 06:22:22 61° WNW 06:24:33 30° SW visible
13 May ? 07:57:13 10° NNW 07:58:55 12° NW 08:00:38 10° WNW visible
14 May ? 05:18:56 10° NNE 05:23:26 43° E 05:25:03 31° SE visible
14 May ? 06:56:40 10° N 07:00:45 30° WNW 07:03:40 16° WSW visible
15 May ? 04:21:30 10° NE 04:23:59 14° E 04:25:34 12° ESE visible
15 May ? 05:57:23 10° NNE 06:02:07 89° WNW 06:04:10 34° SSW visible
15 May ? 07:36:01 10° NNW 07:38:56 17° NW 07:41:50 10° W visible
16 May ? 04:58:53 10° NE 05:03:00 29° E 05:04:40 23° SE visible
16 May ? 06:36:09 10° N 06:40:36 43° WNW 06:43:16 22° SW visible
17 May ? 05:37:06 10° NNE 05:41:48 62° ESE 05:43:46 33° S visible
17 May ? 07:15:14 10° N 07:18:53 23° WNW 07:22:23 11° WSW visible
18 May ? 04:39:02 10° NE 04:42:30 20° E 04:44:16 16° ESE visible
18 May ? 06:15:42 10° N 06:20:23 64° WNW 06:22:52 27° SW visible
18 May ? 07:55:01 10° NNW 07:56:58 12° NW 07:58:54 10° WNW visible
19 May ? 05:16:56 10° NNE 05:21:25 41° E 05:23:21 27° SSE visible
19 May ? 06:54:36 10° N 06:58:45 32° WNW 07:01:58 15° WSW visible
20 May ? 04:19:37 10° ENE 04:21:55 13° E 04:23:50 11° ESE visible
20 May ? 05:55:21 10° NNE 06:00:05 87° ESE 06:02:27 30° SSW visible
20 May ? 07:33:54 10° NNW 07:36:56 17° NW 07:39:58 10° W visible
21 May ? 04:56:53 10° NE 05:00:56 28° E 05:02:55 21° SE visible
21 May ? 06:34:04 10° N 06:38:34 45° WNW 06:41:31 20° SW visible
22 May ? 05:35:04 10° NNE 05:39:44 58° ESE 05:42:00 29° S visible
22 May ? 07:13:07 10° N 07:16:51 24° WNW 07:20:35 10° WSW visible
